Regional Weather Roundup
Issued by NWS Goodland, KS

Home | Current Version | Previous Version | Graphics & Text | Print | Product List | Glossary On
Versions: 1 2 3 4 5 6 7 8 9 10 11 12 13 14 15 16 17 18 19 20 21 22 23 24 25 26 27 28 29 30 31 32 33 34 35 36 37 38 39 40 41 42 43 44 45 46 47 48 49 50
049
ASUS43 KGLD 241708
RWRGLD

GOODLAND FORECAST AREA HOURLY WEATHER ROUNDUP
NATIONAL WEATHER SERVICE GOODLAND KS
1100 AM MDT SAT JUN 24 2017

...OFFICIAL OBSERVATIONS...

CITY           SKY/WX    TMP DP  RH WIND       PRES   REMARKS
GOODLAND KS    CLOUDY    65  50  58 SE14      30.31R
HILL CITY KS   PTSUNNY   70  47  43 SE8       30.31R
IMPERIAL NEB   CLOUDY    68  40  35 S9        30.30F
MCCOOK NEB     PTSUNNY   70  43  37 S7        30.29F
AKRON CO       CLOUDY    64  41  42 E9        30.32R
BURLINGTON CO  CLOUDY    68  49  50 S10       30.32S
LIMON CO       CLOUDY    65  45  48 SE13      30.34S
$$

...UNOFFICIAL OBSERVATIONS...

CITY           SKY/WX    TMP DP  RH WIND       PRES   REMARKS
NORTON KS      CLOUDY    73  36  25 S8        30.30R
SHARON SPRINGS   N/A     65  54  66 E5          N/A
KIT CARSON CO    N/A     68  49  50 MISG        N/A
YUMA CO        CLOUDY    63  46  55 SE8       30.32R
$$




USA.gov is the U.S. government's official web portal to all federal, state and local government web resources and services.